Météo par heure à Alins

Ce jour, 13 Mai, Jeudi

Heure Température Précipitation Vent Pression Humidité
00:00 +2°C° 0.1 mm 2 m/s 637 mmHg 86%
01:00 +1°C° 0 mm 2 m/s 637 mmHg 86%
02:00 +1°C° 0 mm 2 m/s 637 mmHg 85%
03:00 -1°C° 0 mm 2 m/s 636 mmHg 85%
04:00 -1°C° 0 mm 2 m/s 637 mmHg 80%
05:00 +1°C° 0 mm 2 m/s 637 mmHg 75%
06:00 +2°C° 0 mm 2 m/s 637 mmHg 70%
07:00 +5°C° 0 mm 1 m/s 637 mmHg 59%
08:00 +7°C° 0 mm 1 m/s 637 mmHg 47%
09:00 +10°C° 0 mm 1 m/s 637 mmHg 36%
10:00 +10°C° 0 mm 2 m/s 637 mmHg 36%
11:00 +12°C° 0 mm 2 m/s 637 mmHg 36%
12:00 +12°C° 0 mm 3 m/s 637 mmHg 35%
13:00 +11°C° 0 mm 3 m/s 637 mmHg 41%
14:00 +11°C° 0 mm 3 m/s 637 mmHg 47%
15:00 +11°C° 0 mm 3 m/s 636 mmHg 52%
16:00 +10°C° 0.2 mm 3 m/s 636 mmHg 58%
17:00 +9°C° 0.2 mm 3 m/s 636 mmHg 64%
18:00 +9°C° 0.2 mm 2 m/s 636 mmHg 70%
19:00 +7°C° 0.1 mm 2 m/s 635 mmHg 76%
20:00 +7°C° 0.1 mm 1 m/s 635 mmHg 82%
21:00 +5°C° 0.1 mm 0 m/s 635 mmHg 89%
22:00 +6°C° 0.2 mm 1 m/s 635 mmHg 90%
23:00 +6°C° 0.2 mm 1 m/s 635 mmHg 91%

Demain, 14 Mai, Vendredi

Heure Température Précipitation Vent Pression Humidité
00:00 +5°C° 0.2 mm 1 m/s 635 mmHg 91%
01:00 +4°C° 0.2 mm 2 m/s 635 mmHg 92%
02:00 +4°C° 0.2 mm 2 m/s 635 mmHg 92%
03:00 +4°C° 0.2 mm 2 m/s 635 mmHg 92%
04:00 +4°C° 0.2 mm 2 m/s 635 mmHg 90%
05:00 +4°C° 0.2 mm 2 m/s 635 mmHg 87%
06:00 +4°C° 0.2 mm 2 m/s 636 mmHg 85%
07:00 +5°C° 0 mm 2 m/s 636 mmHg 73%
08:00 +7°C° 0 mm 2 m/s 637 mmHg 60%
09:00 +8°C° 0 mm 2 m/s 637 mmHg 48%
10:00 +9°C° 0 mm 2 m/s 638 mmHg 45%
11:00 +12°C° 0 mm 2 m/s 638 mmHg 42%
12:00 +13°C° 0 mm 2 m/s 638 mmHg 39%
13:00 +13°C° 0 mm 2 m/s 638 mmHg 38%
14:00 +13°C° 0 mm 2 m/s 638 mmHg 37%
15:00 +13°C° 0 mm 3 m/s 638 mmHg 36%
16:00 +13°C° 0 mm 2 m/s 638 mmHg 42%
17:00 +12°C° 0 mm 2 m/s 638 mmHg 48%
18:00 +10°C° 0 mm 2 m/s 638 mmHg 54%
19:00 +8°C° 0 mm 2 m/s 638 mmHg 60%
20:00 +6°C° 0 mm 2 m/s 638 mmHg 66%
21:00 +6°C° 0 mm 1 m/s 638 mmHg 71%
22:00 +6°C° 0 mm 1 m/s 638 mmHg 70%
23:00 +6°C° 0 mm 1 m/s 638 mmHg 68%

Après-demain, 15 Mai, Samedi

Heure Température Précipitation Vent Pression Humidité
00:00 +6°C° 0 mm 1 m/s 637 mmHg 67%
01:00 +6°C° 0 mm 1 m/s 637 mmHg 67%
02:00 +6°C° 0 mm 1 m/s 637 mmHg 68%
03:00 +7°C° 0 mm 1 m/s 637 mmHg 69%
04:00 +7°C° 0.1 mm 1 m/s 637 mmHg 71%
05:00 +7°C° 0.1 mm 1 m/s 637 mmHg 72%
06:00 +7°C° 0.1 mm 1 m/s 637 mmHg 73%
07:00 +8°C° 0.1 mm 1 m/s 637 mmHg 73%
08:00 +9°C° 0.1 mm 1 m/s 637 mmHg 72%
09:00 +9°C° 0.1 mm 2 m/s 638 mmHg 71%
10:00 +10°C° 0 mm 2 m/s 638 mmHg 70%
11:00 +12°C° 0 mm 2 m/s 638 mmHg 69%
12:00 +13°C° 0 mm 2 m/s 638 mmHg 67%
13:00 +13°C° 0.1 mm 2 m/s 638 mmHg 69%
14:00 +13°C° 0.1 mm 2 m/s 638 mmHg 70%
15:00 +13°C° 0.1 mm 3 m/s 638 mmHg 72%
16:00 +13°C° 0.1 mm 2 m/s 638 mmHg 76%
17:00 +12°C° 0.1 mm 2 m/s 638 mmHg 80%
18:00 +11°C° 0.1 mm 1 m/s 637 mmHg 84%
19:00 +11°C° 0 mm 1 m/s 637 mmHg 86%
20:00 +11°C° 0 mm 1 m/s 637 mmHg 88%
21:00 +10°C° 0 mm 1 m/s 637 mmHg 89%
22:00 +10°C° 0 mm 1 m/s 637 mmHg 91%
23:00 +10°C° 0 mm 1 m/s 637 mmHg 92%

16 Mai, Dimanche

Heure Température Précipitation Vent Pression Humidité
00:00 +9°C° 0 mm 0 m/s 637 mmHg 93%
01:00 +9°C° 0 mm 0 m/s 637 mmHg 94%
02:00 +9°C° 0 mm 0 m/s 637 mmHg 94%
03:00 +10°C° 0 mm 1 m/s 636 mmHg 95%
04:00 +10°C° 0 mm 1 m/s 636 mmHg 94%
05:00 +10°C° 0 mm 1 m/s 637 mmHg 92%
06:00 +10°C° 0 mm 1 m/s 637 mmHg 91%
07:00 +11°C° 0.1 mm 1 m/s 637 mmHg 87%
08:00 +12°C° 0.1 mm 2 m/s 637 mmHg 83%
09:00 +13°C° 0.1 mm 2 m/s 638 mmHg 79%
10:00 +12°C° 0.2 mm 2 m/s 638 mmHg 80%
11:00 +12°C° 0.2 mm 2 m/s 638 mmHg 81%
12:00 +12°C° 0.2 mm 2 m/s 638 mmHg 83%
13:00 +12°C° 0.3 mm 2 m/s 638 mmHg 83%
14:00 +12°C° 0.3 mm 2 m/s 637 mmHg 83%
15:00 +12°C° 0.3 mm 2 m/s 637 mmHg 83%
16:00 +12°C° 0.1 mm 2 m/s 637 mmHg 82%
17:00 +12°C° 0.1 mm 2 m/s 637 mmHg 81%
18:00 +12°C° 0.1 mm 2 m/s 638 mmHg 80%
19:00 +10°C° 0 mm 2 m/s 638 mmHg 82%
20:00 +10°C° 0 mm 1 m/s 638 mmHg 84%
21:00 +9°C° 0 mm 1 m/s 638 mmHg 86%
22:00 +8°C° 0 mm 1 m/s 638 mmHg 87%
23:00 +7°C° 0 mm 1 m/s 638 mmHg 89%

17 Mai, Lundi

Heure Température Précipitation Vent Pression Humidité
00:00 +7°C° 0 mm 1 m/s 638 mmHg 90%
01:00 +6°C° 0 mm 1 m/s 637 mmHg 90%
02:00 +6°C° 0 mm 1 m/s 637 mmHg 90%
03:00 +5°C° 0 mm 1 m/s 637 mmHg 90%
04:00 +5°C° 0 mm 1 m/s 638 mmHg 87%
05:00 +5°C° 0 mm 1 m/s 638 mmHg 85%
06:00 +6°C° 0 mm 1 m/s 638 mmHg 83%
07:00 +6°C° 0 mm 2 m/s 639 mmHg 74%
08:00 +7°C° 0 mm 2 m/s 639 mmHg 66%
09:00 +8°C° 0 mm 2 m/s 639 mmHg 58%
10:00 +9°C° 0 mm 2 m/s 640 mmHg 52%
11:00 +12°C° 0 mm 2 m/s 640 mmHg 45%
12:00 +13°C° 0 mm 2 m/s 640 mmHg 39%
13:00 +12°C° 0 mm 3 m/s 640 mmHg 39%
14:00 +12°C° 0 mm 3 m/s 640 mmHg 40%
15:00 +12°C° 0 mm 4 m/s 640 mmHg 40%
16:00 +11°C° 0 mm 4 m/s 640 mmHg 44%
17:00 +8°C° 0 mm 4 m/s 640 mmHg 49%
18:00 +7°C° 0 mm 4 m/s 640 mmHg 54%
19:00 +5°C° 0 mm 4 m/s 641 mmHg 60%
20:00 +3°C° 0 mm 3 m/s 641 mmHg 67%
21:00 +1°C° 0 mm 3 m/s 642 mmHg 73%
22:00 +1°C° 0 mm 3 m/s 642 mmHg 70%
23:00 +1°C° 0 mm 3 m/s 642 mmHg 67%

18 Mai, Mardi

Heure Température Précipitation Vent Pression Humidité
00:00 0°C° 0 mm 3 m/s 642 mmHg 64%
01:00 0°C° 0 mm 3 m/s 642 mmHg 61%
02:00 0°C° 0 mm 3 m/s 642 mmHg 59%
03:00 -1°C° 0 mm 3 m/s 642 mmHg 56%
04:00 0°C° 0 mm 3 m/s 642 mmHg 52%
05:00 +2°C° 0 mm 2 m/s 643 mmHg 48%
06:00 +3°C° 0 mm 2 m/s 643 mmHg 43%
07:00 +6°C° 0 mm 2 m/s 643 mmHg 38%
08:00 +8°C° 0 mm 2 m/s 644 mmHg 32%
09:00 +11°C° 0 mm 1 m/s 644 mmHg 27%
10:00 +12°C° 0 mm 2 m/s 645 mmHg 27%
11:00 +14°C° 0 mm 2 m/s 645 mmHg 27%
12:00 +14°C° 0 mm 3 m/s 645 mmHg 27%
13:00 +14°C° 0 mm 3 m/s 645 mmHg 28%
14:00 +14°C° 0 mm 3 m/s 645 mmHg 30%
15:00 +16°C° 0 mm 3 m/s 645 mmHg 31%
16:00 +15°C° 0 mm 2 m/s 644 mmHg 37%
17:00 +14°C° 0 mm 2 m/s 644 mmHg 44%
18:00 +14°C° 0 mm 1 m/s 644 mmHg 50%
19:00 +12°C° 0 mm 1 m/s 644 mmHg 56%
20:00 +9°C° 0 mm 2 m/s 644 mmHg 61%
21:00 +8°C° 0 mm 2 m/s 644 mmHg 67%
22:00 +8°C° 0 mm 2 m/s 644 mmHg 68%
23:00 +8°C° 0 mm 2 m/s 644 mmHg 69%
Voir plus

Nous avons besoin de votre consentement

Meteoprog et ses fournisseurs de services peuvent stocker et accéder à des données personnelles telles que des cookies, des identifiants d'appareils ou d'autres technologies similaires sur votre appareil et traiter ces données pour personnaliser le contenu et les publicités, ainsi que pour fournir des fonctionnalités de médias sociaux et analyser le trafic.

  • Stocker et/ou accéder à des informations sur votre appareil

    Des cookies, des identifiants d'appareils ou d'autres informations peuvent être stockés ou accessibles sur votre appareil aux fins indiquées ci-dessus.

  • Annonces et contenus personnalisés, mesure des annonces et des contenus, connaissance de l'audience et développement de produits

    Les annonces et le contenu peuvent être personnalisés en fonction d'un profil. D'autres données peuvent être ajoutées pour mieux personnaliser les annonces et le contenu. Les performances des publicités et du contenu peuvent être mesurées. Il est possible d'obtenir des informations sur le public qui a vu les publicités et le contenu. Ces données peuvent être utilisées pour développer ou améliorer l'expérience de l'utilisateur, les systèmes et les logiciels.

En cliquant sur "J'accepte", vous autorisez l'utilisation de cookies, des identifiants d'appareils, des balises web ou d'autres technologies similaires. Vos paramètres peuvent être modifiés dans le navigateur de votre appareil.

Dans certains cas, des intérêts légitimes peuvent être invoqués plutôt qu'un consentement. Vous pouvez en savoir plus à ce sujet dans notre Politique de confidentialité et de cookies.